Zurück zum Katalog

FENGYUN 1C DEB

AktivSSO
NORAD 31201·DEBRIS·🇨🇳 China

Gestartet May 10, 1999 von Taiyuan Satellite Launch Center

Loading…

Nächste Überflüge (nächste 24 Stunden)

TLE

AktuellSource: Space-Track

Epoche: Sep 14, 2026, 03:36 UTC

1 31201U 99025BKF 26257.15008089  .00001086  00000-0  34933-3 0  9995
2 31201  98.9713 134.7888 0138778 263.5315 249.5685 14.36292866 12003

Verfolge FENGYUN 1C DEB in Echtzeit mit AllMySat

Download on the App Store